Flag for Vietnam Weather past 2 weeks in Hanoi, Vietnam

Now
88 °F

Clear.


Feels Like: 102 °F
Forecast: 86 / 105 °F
Wind: 10 mph from East

Location: Ha Noi Airport

Current Time: May 28, 2015 at 11:59:28 PM

Latest Report: May 28, 2015 at 11:30 PM


Visibility: 10 mi

Pressure: 29.53 "Hg

Humidity: 75%

Dew point: 79 °F

Location of HanoiLocation

Historic Weather in Hanoi — Graph

°F

Hanoi temperature yesterday

Maximum temperature yesterday: 100 °F (at 2:00 PM)
Minimum temperature yesterday: 84 °F (at 2:00 AM)
Average temperature yesterday: 91 °F

Past Weeks' High & Low Weather Summary

 TemperatureHumidityPressure
High102 °F (May 28, 3:00 PM)100% (May 16, 6:00 AM)29.83 "Hg (May 16, 6:00 AM)
Low73 °F (May 16, 5:30 AM)33% (May 28, 3:30 PM)29.45 "Hg (May 28, 4:30 PM)
Average86 °F75%29.64 "Hg
* Reported May 13 10:00 PM — May 28 10:00 PM, Hanoi, Weather by CustomWeather, © 2015

Note: Actual official high and low records may vary slightly from our data, if they occured in-between our weather recording intervals... More about our weather records

Advertising

Hanoi weather history for previous 24 hours

 ConditionsComfort  
Time TempWeatherWind HumidityBarometerVisibility
10:00 PM
Thu, May 28
90 °FClear.10 mph67%29.53 "Hg10 mi
9:30 PM90 °FClear.9 mph67%29.53 "Hg10 mi
9:00 PM91 °FClear.9 mph63%29.53 "Hg10 mi
8:30 PM91 °FClear.9 mph63%29.50 "Hg10 mi
8:00 PM93 °FClear.9 mph59%29.50 "Hg10 mi
7:30 PM93 °FClear.12 mph63%29.50 "Hg6 mi
7:00 PM95 °FClear.13 mph60%29.47 "Hg10 mi
6:30 PM97 °FSunny.12 mph50%29.47 "Hg10 mi
6:00 PM97 °FSunny.10 mph53%29.47 "Hg10 mi
5:30 PM100 °FPassing clouds.6 mph35%29.47 "HgN/A
5:00 PM102 °FPassing clouds.6 mph33%29.45 "HgN/A
4:30 PM102 °FPassing clouds.6 mph35%29.45 "HgN/A
3:30 PM102 °FPassing clouds.6 mph33%29.47 "HgN/A
3:00 PM102 °FPassing clouds.8 mph35%29.47 "HgN/A
2:30 PM100 °FSunny.5 mph40%29.50 "Hg10 mi
2:00 PM100 °FSunny.7 mph40%29.50 "Hg10 mi
1:30 PM100 °FPartly sunny.6 mph40%29.50 "HgN/A
1:00 PM100 °FPassing clouds.8 mph42%29.53 "HgN/A
12:30 PM99 °FPassing clouds.9 mph44%29.53 "HgN/A
12:00 PM97 °FPassing clouds.8 mph47%29.53 "HgN/A
11:30 AM97 °FPassing clouds.8 mph47%29.53 "HgN/A
11:00 AM97 °FPassing clouds.8 mph47%29.56 "HgN/A
10:30 AM95 °FPassing clouds.6 mph56%29.56 "HgN/A
10:00 AM93 °FSunny.3 mph56%29.56 "Hg10 mi
9:30 AM93 °FSunny.2 mph63%29.56 "Hg10 mi
9:00 AM91 °FClear.5 mph71%29.59 "Hg6 mi
8:30 AM90 °FClear.6 mph75%29.59 "Hg5 mi
8:00 AM88 °FClear.6 mph75%29.56 "Hg4 mi
7:30 AM86 °FClear.7 mph79%29.56 "Hg4 mi
7:00 AM84 °FClear.7 mph84%29.56 "Hg4 mi
6:30 AM84 °FClear.7 mph79%29.56 "Hg5 mi
6:00 AM81 °FClear.5 mph89%29.56 "Hg4 mi
5:30 AM81 °FClear.5 mph84%29.53 "Hg5 mi
5:00 AM81 °FClear.6 mph84%29.53 "Hg10 mi
4:30 AM81 °FClear.6 mph84%29.53 "Hg10 mi
4:00 AM82 °FClear.6 mph79%29.53 "Hg10 mi
3:30 AM84 °FClear.7 mph79%29.50 "Hg10 mi
3:00 AM84 °FClear.7 mph79%29.50 "Hg6 mi
2:30 AM84 °FClear.7 mph79%29.50 "Hg10 mi
2:00 AM84 °FClear.6 mph79%29.53 "Hg10 mi
1:30 AM84 °FClear.3 mph79%29.53 "Hg10 mi
1:00 AM84 °FClear.7 mph79%29.53 "Hg10 mi
12:30 AM86 °FClear.9 mph75%29.53 "Hg10 mi
12:00 AM86 °FPassing clouds.8 mph75%29.56 "HgN/A
11:30 PM
Wed, May 27
88 °FPartly cloudy.10 mph70%29.59 "HgN/A
11:00 PM86 °FPartly cloudy.12 mph79%29.59 "HgN/A
Weather by CustomWeather, © 2015

See weather overviewHow to use our weather pages